[[{"header":{"parameterUnit":"m.s-1","parameterCategory":1,"la1":30.2991,"la2":30.254,"lo1":-89.0895,"lo2":-89.0444,"dy":0.0017,"dx":0.0017,"nx":28,"ny":28,"refTime":"2025-12-21T09:00:00:Z","depth":0,"parameterNumber":2,"parameterNumberName":"U-component_of_WINDS"},"data":[0,0,0,0,0,0,0,0,0,0,0,0,0,0,0,0,0,0,0,0,0,0,0,0,0,0,0,0,0,0,0,0,0,0,0,0,0,0,0,0,0,0,0,0,0,0,0,0,0,0,0,0,0,0,0,0,0,0,-2.6208,-2.6208,0,-2.6239,-2.624,-2.624,-2.6196,-2.6194,-2.6193,-2.6191,-2.6223,-2.6225,-2.6228,0,0,0,0,0,0,0,0,0,0,0,0,0,-2.6111,-2.6113,-2.6208,-2.6208,-2.6209,-2.6239,-2.624,-2.624,-2.6196,-2.6194,-2.6193,-2.6191,-2.6222,-2.6225,-2.6228,0,0,0,0,0,0,0,0,0,0,0,0,0,-2.6149,-2.6113,-2.6208,-2.6191,-2.6189,-2.6239,-2.624,-2.624,-2.6197,-2.6194,-2.6192,-2.619,-2.6221,-2.6225,-2.6228,-2.6296,0,0,-2.6239,-2.624,0,0,0,0,0,0,0,0,-2.6146,-2.6152,-2.6193,-2.6192,-2.6191,-2.6211,-2.6217,-2.6259,-2.6197,-2.6194,-2.6191,-2.6189,-2.6221,-2.6224,-2.6235,-2.6298,-2.6299,-2.6239,-2.6241,-2.6243,-2.6244,0,0,0,0,0,0,0,-2.6144,-2.6151,-2.622,-2.6193,-2.6192,-2.6181,-2.6184,-2.6225,-2.622,-2.6194,-2.6191,-2.6195,-2.622,-2.6232,-2.6236,-2.63,-2.6239,-2.6242,-2.6244,-2.6246,-2.6421,-2.6423,0,0,0,0,0,0,-2.6143,-2.6149,-2.6219,-2.6221,-2.6162,-2.6185,-2.6188,-2.6207,-2.622,-2.6219,-2.6197,-2.6193,-2.6227,-2.6232,-2.6237,-2.6318,-2.6243,-2.6246,-2.6248,-2.6418,-2.6422,-2.6424,0,0,0,0,0,0,-2.6141,-2.615,-2.6218,-2.6184,-2.6192,-2.6189,-2.6211,-2.6209,-2.6221,-2.6222,-2.6221,-2.621,-2.6226,-2.6232,-2.6282,-2.6318,-2.6247,-2.6251,-2.6415,-2.6419,-2.6423,-2.648,0,0,0,0,0,0,-2.6139,-2.615,-2.6175,-2.6185,-2.6194,-2.6263,-2.6213,-2.6211,-2.6227,-2.6222,-2.6234,-2.6234,-2.6224,-2.6277,-2.6286,-2.6322,-2.6253,-2.6412,-2.6417,-2.6422,-2.6475,-2.6485,-2.6494,0,0,0,0,0,-2.6135,-2.619,-2.6177,-2.6185,-2.6226,-2.6265,-2.627,-2.6258,-2.623,-2.6256,-2.6257,-2.6234,-2.6313,-2.6283,-2.6292,-2.6329,-2.641,-2.6416,-2.6421,-2.647,-2.6483,-2.6494,0,0,0,0,0,0,-2.6183,-2.619,-2.6176,-2.6235,-2.625,-2.6257,-2.6289,-2.6272,-2.6294,-2.6289,-2.6273,-2.6276,-2.633,-2.6335,-2.6301,-2.6397,-2.6357,-2.6365,-2.6391,-2.6403,-2.6413,-2.641,-2.6256,0,0,0,0,0,-2.6201,-2.6232,-2.6237,-2.6288,-2.6296,-2.6292,-2.6308,-2.6298,-2.6313,-2.6318,-2.6323,-2.6338,-2.6366,-2.6385,-2.6412,-2.6476,-2.6478,-2.6506,-2.6516,-2.6524,-2.6531,-2.6566,-2.6578,-2.6444,-2.6443,-2.6443,0,0,-2.6237,-2.6245,-2.6265,-2.6298,-2.6308,-2.6341,-2.6297,-2.6333,-2.6357,-2.6324,-2.6371,-2.6376,-2.6392,-2.6449,-2.6475,-2.6455,-2.6569,-2.6532,-2.6538,-2.654,-2.6573,-2.6586,-2.6597,-2.6447,-2.6447,-2.6446,0,0,-2.6319,-2.6328,-2.6372,-2.6384,-2.64,-2.6397,-2.6408,-2.6419,-2.6421,-2.6469,-2.6444,-2.6473,-2.6522,-2.6535,-2.6548,-2.6637,-2.6617,-2.6647,-2.6696,-2.6731,-2.6741,-2.6751,-2.6782,-2.6794,-2.6653,-2.6654,-2.6654,0,-2.6361,-2.6409,-2.6397,-2.6435,-2.6451,-2.6423,-2.6468,-2.648,-2.6504,-2.6515,-2.6493,-2.6555,-2.6564,-2.6624,-2.6646,-2.6658,-2.667,-2.6644,-2.6741,-2.675,-2.6759,-2.6789,-2.6801,-2.6657,-2.6657,-2.6656,-2.6656,0,-2.6461,-2.6495,-2.6529,-2.6553,-2.6573,-2.6614,-2.6608,-2.663,-2.6619,-2.6618,-2.6668,-2.6678,-2.6706,-2.672,-2.6709,-2.678,-2.6767,-2.6743,-2.6703,-2.6775,-2.6803,-2.6814,-2.6662,-2.6661,-2.666,-2.6659,0,0,-2.6571,-2.659,-2.6603,-2.6614,-2.6631,-2.6657,-2.6698,-2.6726,-2.6744,-2.6763,-2.6797,-2.684,-2.6819,-2.6834,-2.6824,-2.6855,-2.6925,-2.6827,-2.6828,-2.6845,-2.7003,-2.702,-2.7034,-2.6913,-2.6915,-2.6917,-2.7002,0,-2.6653,-2.6723,-2.6714,-2.6781,-2.6813,-2.6788,-2.6824,-2.6839,-2.684,-2.6868,-2.6869,-2.69,-2.687,-2.6879,-2.6908,-2.691,-2.6957,-2.6904,-2.6943,-2.6945,-2.6939,-2.7048,-2.7066,-2.7145,-2.7013,-2.7015,-2.7016,0,-2.6756,-2.6779,-2.685,-2.6863,-2.6876,-2.6908,-2.6934,-2.696,-2.6977,-2.6976,-2.6994,-2.698,-2.7021,-2.6982,-2.7039,-2.7004,-2.702,-2.7024,-2.7027,-2.7028,-2.6984,-2.7052,-2.7171,-2.7182,-2.7033,-2.7032,-2.7031,0,-2.6829,-2.6878,-2.6926,-2.6937,-2.6954,-2.6977,-2.6985,-2.7,-2.7018,-2.7041,-2.7052,-2.708,-2.7094,-2.7116,-2.711,-2.7082,-2.7169,-2.7129,-2.7169,-2.7169,-2.7187,-2.7185,-2.7308,-2.72,-2.72,-2.7199,-2.7199,0,-2.692,-2.6964,-2.6959,-2.6989,-2.7038,-2.7028,-2.7077,-2.7082,-2.7096,-2.7126,-2.7108,-2.7137,-2.7128,-2.7157,-2.7154,-2.7201,-2.7209,-2.7209,-2.7207,-2.721,-2.721,-2.7219,-2.7212,-2.7202,-2.7202,-2.7201,-2.7201,0,-2.7008,-2.7007,-2.7058,-2.7071,-2.7075,-2.7111,-2.7122,-2.715,-2.7151,-2.719,-2.7199,-2.7201,-2.7234,-2.7231,-2.7269,-2.7266,-2.7326,-2.7318,-2.732,-2.7317,-2.7358,-2.7354,-2.749,-2.7507,-2.7388,-2.7389,-2.739,0,-2.7065,-2.7098,-2.7115,-2.7135,-2.7145,-2.7176,-2.7195,-2.7188,-2.7208,-2.7231,-2.7256,-2.7288,-2.7313,-2.7368,-2.7373,-2.7402,-2.7394,-2.744,-2.7398,-2.74,-2.7394,-2.7391,-2.7395,-2.7447,-2.7449,-2.745,-2.7451,0,-2.7166,-2.7165,-2.7192,-2.722,-2.7243,-2.7264,-2.7284,-2.7301,-2.7296,-2.732,-2.7354,-2.7374,-2.7413,-2.7445,-2.7473,-2.7482,-2.7466,-2.7464,-2.7475,-2.7477,-2.7477,-2.7477,-2.7341,-2.7461,-2.746,-2.7459,-2.7458,-2.7458,-2.724,-2.7269,-2.7286,-2.7317,-2.7331,-2.7351,-2.7378,-2.7383,-2.7412,-2.7443,-2.7438,-2.7476,-2.7494,-2.753,-2.7542,-2.7573,-2.7556,-2.7572,-2.7576,-2.7579,-2.7583,-2.7474,-2.7578,-2.7578,-2.7577,-2.7577,-2.7577,0,-2.734,-2.735,-2.7379,-2.7407,-2.7433,-2.7417,-2.7438,-2.746,-2.7494,-2.7512,-2.7538,-2.7578,-2.761,-2.7618,-2.7649,-2.7672,-2.7665,-2.768,-2.7677,-2.768,-2.7597,-2.7584,-2.7685,-2.7685,-2.7685,-2.7685,-2.7685,-2.7685,-2.7394,-2.7442,-2.7443,-2.7498,-2.7508,-2.7546,-2.756,-2.7578,-2.7592,-2.7638,-2.7664,-2.767,-2.7684,-2.7716,-2.7745,-2.7746,-2.7758,-2.7776,-2.7774,-2.7696,-2.7685,-2.7675,-2.7663,-2.7779,-2.7779,-2.7855,-2.7855,-2.7856]},{"header":{"parameterUnit":"m.s-1","parameterCategory":1,"la1":30.2991,"la2":30.254,"lo1":-89.0895,"lo2":-89.0444,"dy":0.0017,"dx":0.0017,"nx":28,"ny":28,"refTime":"2025-12-21T09:00:00:Z","depth":0,"parameterNumber":3,"parameterNumberName":"V-component_of_WINDS"},"data":[0,0,0,0,0,0,0,0,0,0,0,0,0,0,0,0,0,0,0,0,0,0,0,0,0,0,0,0,0,0,0,0,0,0,0,0,0,0,0,0,0,0,0,0,0,0,0,0,0,0,0,0,0,0,0,0,0,0,1.3768,1.3769,0,1.3924,1.3926,1.3928,1.3974,1.3974,1.3973,1.3972,1.4128,1.4133,1.4137,0,0,0,0,0,0,0,0,0,0,0,0,0,1.3507,1.3512,1.3767,1.3769,1.3771,1.3924,1.3926,1.3928,1.3975,1.3974,1.3973,1.3972,1.4126,1.4132,1.4138,0,0,0,0,0,0,0,0,0,0,0,0,0,1.3637,1.3513,1.3767,1.3813,1.3819,1.3923,1.3926,1.3929,1.3975,1.3974,1.3972,1.3971,1.4124,1.4131,1.4139,1.4207,0,0,1.4161,1.4164,0,0,0,0,0,0,0,0,1.363,1.3647,1.3804,1.381,1.3817,1.3929,1.3891,1.4022,1.3975,1.3915,1.3972,1.3971,1.4062,1.4075,1.4106,1.4215,1.4221,1.4162,1.4166,1.4169,1.4171,0,0,0,0,0,0,0,1.3621,1.3641,1.3829,1.3807,1.3814,1.3825,1.3843,1.3916,1.3993,1.3921,1.3924,1.3942,1.4065,1.4099,1.411,1.4224,1.4161,1.4168,1.4173,1.4175,1.4399,1.4401,0,0,0,0,0,0,1.3605,1.3633,1.3824,1.3834,1.3719,1.3831,1.385,1.3894,1.3993,1.4007,1.3943,1.3944,1.4087,1.4102,1.4116,1.4205,1.4169,1.4176,1.418,1.4398,1.44,1.4401,0,0,0,0,0,0,1.3599,1.3621,1.3818,1.3735,1.3761,1.3837,1.3885,1.3897,1.3932,1.401,1.4024,1.3964,1.4087,1.4106,1.4185,1.4211,1.4179,1.4186,1.4396,1.4398,1.4401,1.4383,0,0,0,0,0,0,1.3591,1.3619,1.3646,1.3735,1.3765,1.3885,1.3887,1.3901,1.3945,1.3947,1.4033,1.4046,1.4087,1.4174,1.4193,1.4221,1.4192,1.4394,1.4397,1.44,1.4381,1.4384,1.4387,0,0,0,0,0,1.3582,1.3633,1.3647,1.367,1.38,1.3887,1.3904,1.3952,1.3946,1.3974,1.4025,1.4043,1.4205,1.4182,1.4203,1.4234,1.4393,1.4396,1.44,1.438,1.4384,1.4387,0,0,0,0,0,0,1.3543,1.3645,1.3662,1.3744,1.3807,1.3894,1.3931,1.3953,1.4017,1.4017,1.4072,1.4091,1.4167,1.4208,1.4181,1.4307,1.43,1.4307,1.4278,1.4282,1.4284,1.4273,1.4198,0,0,0,0,0,1.3544,1.3607,1.3692,1.3756,1.3787,1.3854,1.3893,1.3925,1.3991,1.4017,1.4074,1.4137,1.4202,1.4244,1.4308,1.4387,1.4408,1.4419,1.4422,1.4424,1.443,1.4477,1.4484,1.4413,1.4413,1.4413,0,0,1.3547,1.3611,1.3646,1.375,1.3803,1.3866,1.3876,1.3941,1.3989,1.4027,1.4107,1.4151,1.4224,1.4305,1.4343,1.4341,1.4454,1.4428,1.4429,1.4434,1.4482,1.4488,1.4494,1.4415,1.4415,1.4414,0,0,1.3585,1.3639,1.37,1.3753,1.3833,1.3877,1.3891,1.3977,1.4008,1.409,1.4121,1.4177,1.4288,1.4341,1.4381,1.4442,1.4462,1.4461,1.4475,1.4521,1.4527,1.4532,1.4556,1.4563,1.4467,1.4467,1.4467,0,1.3578,1.3676,1.3727,1.3793,1.3839,1.3879,1.3941,1.3989,1.4085,1.4115,1.4112,1.4255,1.4307,1.4402,1.4417,1.4448,1.4467,1.4452,1.4522,1.4528,1.4533,1.4557,1.4565,1.4467,1.4467,1.4467,1.4467,0,1.3664,1.3731,1.3771,1.3866,1.3915,1.3978,1.404,1.4084,1.4112,1.4157,1.424,1.4305,1.4384,1.4409,1.4435,1.4508,1.4505,1.4511,1.4505,1.4539,1.4562,1.4571,1.4466,1.4466,1.4467,1.4467,0,0,1.368,1.3806,1.3819,1.3864,1.3956,1.4009,1.4075,1.4155,1.4192,1.4257,1.4315,1.4409,1.4417,1.4463,1.4496,1.4536,1.4583,1.4538,1.4541,1.4546,1.467,1.4665,1.4675,1.4597,1.4599,1.46,1.4664,0,1.3731,1.3852,1.3902,1.4,1.4064,1.4104,1.4161,1.4224,1.4268,1.4328,1.4376,1.4443,1.4447,1.4476,1.4517,1.4569,1.4609,1.4565,1.4651,1.4653,1.4633,1.4686,1.4682,1.4739,1.4673,1.4675,1.4676,0,1.3807,1.3876,1.398,1.4068,1.4096,1.4147,1.4226,1.4283,1.4355,1.4385,1.4438,1.447,1.4541,1.453,1.4629,1.4598,1.4636,1.4667,1.467,1.4681,1.4667,1.47,1.4758,1.4767,1.469,1.4689,1.4688,0,1.3811,1.3929,1.4008,1.4045,1.4148,1.4184,1.4228,1.43,1.4346,1.4414,1.4444,1.4519,1.456,1.4617,1.4668,1.4655,1.4763,1.4756,1.479,1.4789,1.4811,1.4809,1.4878,1.4833,1.4833,1.4833,1.4833,0,1.3863,1.3926,1.4012,1.406,1.4132,1.4189,1.4259,1.4306,1.437,1.4428,1.4466,1.452,1.4584,1.4646,1.4686,1.4763,1.4781,1.4807,1.4817,1.4804,1.4801,1.4831,1.4828,1.4835,1.4835,1.4834,1.4834,0,1.388,1.394,1.4029,1.4121,1.4145,1.4195,1.4273,1.4322,1.4368,1.4442,1.4462,1.4535,1.4611,1.4668,1.4764,1.4791,1.4874,1.4884,1.485,1.4856,1.4887,1.4884,1.4978,1.4994,1.4937,1.4938,1.4938,0,1.391,1.396,1.4058,1.4101,1.4146,1.4214,1.4262,1.432,1.4368,1.4457,1.4495,1.4573,1.4639,1.4758,1.4819,1.4894,1.4906,1.4934,1.4918,1.4905,1.4909,1.4906,1.4913,1.4936,1.4937,1.4937,1.4937,0,1.3957,1.3986,1.4054,1.4134,1.4191,1.4255,1.4321,1.4354,1.4424,1.4476,1.4555,1.4606,1.4707,1.4785,1.4866,1.4912,1.4937,1.4942,1.4955,1.4943,1.4922,1.4936,1.4858,1.494,1.494,1.4939,1.4939,1.4939,1.3983,1.4031,1.4108,1.4184,1.424,1.4301,1.4353,1.4407,1.4474,1.4563,1.4592,1.4674,1.4747,1.486,1.4906,1.4971,1.4971,1.4988,1.4993,1.4997,1.4997,1.4911,1.4986,1.4986,1.4986,1.4986,1.4986,0,1.4035,1.4088,1.4157,1.4249,1.4309,1.4329,1.4403,1.4452,1.4524,1.4591,1.4656,1.4748,1.4825,1.4893,1.4972,1.5011,1.5025,1.503,1.5028,1.5039,1.4991,1.4973,1.5018,1.5018,1.5018,1.5018,1.5018,1.5018,1.4069,1.4151,1.4188,1.4299,1.4351,1.4434,1.4475,1.4532,1.4586,1.4687,1.4752,1.4797,1.4865,1.495,1.5021,1.5039,1.5067,1.507,1.5091,1.5046,1.5042,1.5038,1.5022,1.5076,1.5076,1.5134,1.5135,1.5135]}]]